Regional Weather Roundup
Issued by NWS

Home | Current Version | Previous Version | Graphics & Text | Print | Product List | Glossary On
Versions: 1 2 3 4 5 6 7 8 9 10 11 12 13 14 15 16 17 18 19 20 21 22 23 24 25 26 27 28 29 30 31 32 33 34 35 36 37 38 39 40 41 42 43 44 45 46 47 48 49 50
000
ASUS43 KTOP 210159
RWRKS

WEATHER ROUNDUP FOR KANSAS
NATIONAL WEATHER SERVICE GOODLAND KS
900 PM CDT MON OCT 20 2014

NOTE:  "FAIR" INDICATES FEW OR NO CLOUDS BELOW 12,000 FEET WITH NO
SIGNIFICANT WEATHER AND/OR OBSTRUCTIONS TO VISIBILITY.

KSZ001>006-013>018-027>032-041>047-210300-
NORTHWEST KANSAS

CITY           SKY/WX    TMP DP  RH WIND       PRES   REMARKS
GOODLAND       CLEAR     56  39  53 S12       30.11S
HAYS           CLEAR     57  43  58 SE5       30.08S
HILL CITY      CLEAR     56  41  57 CALM      30.08R
RUSSELL        CLEAR     59  45  59 SE9       30.07R
$$

KSZ061>065-074>080-084>089-210300-
SOUTHWEST KANSAS

CITY           SKY/WX    TMP DP  RH WIND       PRES   REMARKS
DODGE CITY     CLEAR     57  44  62 SE8       30.10R
ELKHART          N/A     60  50  69 E9          N/A
GARDEN CITY    CLEAR     56  42  59 E7        30.10R
GREAT BEND     CLEAR     61  45  55 E5        30.09S
LIBERAL        CLEAR     64  52  63 E7        30.11R
$$

KSZ066>073-081>083-090>101-210300-
SOUTHEAST KANSAS

CITY           SKY/WX    TMP DP  RH WIND       PRES   REMARKS
CHANUTE        CLEAR     57  50  77 CALM      30.05R
COFFEYVILLE    CLEAR     61  56  83 CALM      30.04R
HUTCHINSON     CLEAR     55  44  66 NE5       30.07S
NEWTON         CLEAR     66  41  39 NE6       30.09S
PARSONS        CLEAR     56  54  93 CALM      30.05R
WICHITA INTL   CLEAR     66  46  48 NE6       30.05S
WICHITA JABRA  CLEAR     63  46  54 NE6       30.06R
WICHITA MCCONL CLEAR     66  46  48 NE5       30.06R
WINFIELD       CLEAR     63  52  67 E3        30.06R
$$

KSZ007>012-019>026-033>040-048>060-102>105-210300-
NORTHEAST KANSAS

CITY           SKY/WX    TMP DP  RH WIND       PRES   REMARKS
CONCORDIA      CLEAR     56  45  66 S7        30.06S
EMPORIA        CLEAR     59  46  62 CALM      30.06R
LAWRENCE       CLEAR     49  45  86 CALM      30.05S
MANHATTAN      CLEAR     48  44  86 CALM      30.06R
OLATHE IND     CLEAR     56  46  69 CALM      30.06R
OLATHE EXE     CLEAR     61  44  53 CALM      30.05R
SALINA         CLEAR     57  47  69 SE5       30.07R
TOPEKA BILLARD CLEAR     51  46  83 CALM      30.05S
TOPEKA FORBES  CLEAR     53  44  71 CALM      30.06R
$$


USA.gov is the U.S. government's official web portal to all federal, state and local government web resources and services.